Date String (YYYY-MM-DD hh:mm:ss) UTC,Instrument flags,Ambient pressure (hPa),Sample flow (lpm),Bypass flow (lpm),Sample temperature (°C),Ambient temperature (°C),ASC tube jacket temperature (°C),LED temperature (°C),Box temperature (°C),Sample RH (%),Span deviation,Mass concentration (μg/m³),Mass concentration (μg/m³),Mass concentration (μg/m³)
DateTimeUTC,F1_M11,P_M11,Q1_M11,Q2_M11,T1_M11,T2_M11,T3_M11,T4_M11,T5_M11,U1_M11,ZSPAN_M11,X0_M11,X2_M11,X1_M11
2022-07-01 09:00:00,,0831.2,4.99,0.00,30.4,29.4,00.0,39.2,32.3,25.6,0000.0,0008.56,0003.25,0002.08
2022-07-01 09:01:00,,0831.2,5.00,0.00,30.4,29.4,00.0,39.2,32.3,25.6,0000.0,0008.80,0003.23,0002.08
2022-07-01 09:02:00,,0831.2,5.00,0.00,30.4,29.4,00.0,39.2,32.3,25.6,0000.0,0008.79,0003.21,0002.09
2022-07-01 09:03:00,,0831.2,5.00,0.00,30.4,29.4,00.0,39.2,32.3,25.7,0000.0,0008.77,0003.22,0002.10
2022-07-01 09:04:00,,0831.2,4.99,0.00,30.4,29.4,00.0,39.3,32.3,25.6,0000.0,0008.14,0003.25,0002.10
2022-07-01 09:05:00,,0831.2,5.01,0.00,30.4,29.4,00.0,39.3,32.3,25.6,0000.0,0008.13,0003.26,0002.10
2022-07-01 09:06:00,,0831.2,5.00,0.00,30.4,29.4,00.0,39.3,32.3,25.6,0000.0,0008.11,0003.26,0002.12
2022-07-01 09:07:00,,0831.2,5.01,0.00,30.4,29.4,00.0,39.3,32.3,25.6,0000.0,0008.20,0003.31,0002.13
2022-07-01 09:08:00,,0831.2,5.00,0.00,30.5,29.4,00.0,39.3,32.3,25.6,0000.0,0007.64,0003.31,0002.14
2022-07-01 09:09:00,,0831.2,4.99,0.00,30.5,29.0,00.0,39.2,32.3,25.7,0000.0,0007.40,0003.32,0002.13
2022-07-01 09:10:00,,0831.2,5.01,0.00,30.4,28.0,00.0,39.1,32.1,25.7,0000.0,0007.42,0003.34,0002.14
2022-07-01 09:11:00,,0831.1,5.00,0.00,30.3,27.2,00.0,39.1,31.9,25.8,0000.0,0007.50,0003.36,0002.14
2022-07-01 09:12:00,,0831.1,5.00,0.00,30.2,27.0,00.0,39.0,31.7,26.0,0000.0,0007.34,0003.43,0002.16
2022-07-01 09:13:00,,0831.1,5.00,0.00,30.1,27.1,00.0,39.0,31.6,26.2,0000.0,0007.33,0003.49,0002.16
2022-07-01 09:14:00,,0831.1,5.00,0.00,30.0,27.2,00.0,39.0,31.6,26.3,0000.0,0007.60,0003.52,0002.17
2022-07-01 09:15:00,,0831.1,5.00,0.00,29.9,27.4,00.0,38.9,31.5,26.4,0000.0,0007.56,0003.50,0002.17
2022-07-01 09:16:00,,0831.2,5.01,0.00,29.9,27.5,00.0,38.9,31.5,26.5,0000.0,0007.56,0003.52,0002.18
2022-07-01 09:17:00,,0831.2,4.99,0.00,29.8,27.7,00.0,38.8,31.5,26.5,0000.0,0007.58,0003.54,0002.18
2022-07-01 09:18:00,,0831.2,4.99,0.00,29.8,27.9,00.0,38.8,31.5,26.5,0000.0,0007.51,0003.51,0002.18
2022-07-01 09:19:00,,0831.2,5.00,0.00,29.8,28.0,00.0,38.8,31.5,26.6,0000.0,0007.41,0003.48,0002.17
2022-07-01 09:20:00,,0831.2,5.00,0.00,29.8,28.1,00.0,38.8,31.6,26.6,0000.0,0007.46,0003.49,0002.18
2022-07-01 09:21:00,,0831.2,5.00,0.00,29.8,28.2,00.0,38.7,31.6,26.6,0000.0,0007.37,0003.43,0002.17
2022-07-01 09:22:00,,0831.2,5.01,0.00,29.8,28.3,00.0,38.7,31.6,26.6,0000.0,0007.42,0003.45,0002.17
2022-07-01 09:23:00,,0831.2,5.00,0.00,29.8,28.4,00.0,38.7,31.7,26.6,0000.0,0007.22,0003.42,0002.16
2022-07-01 09:24:00,,0831.2,5.00,0.00,29.8,28.4,00.0,38.7,31.7,26.6,0000.0,0007.20,0003.41,0002.15
2022-07-01 09:25:00,,0831.2,4.98,0.00,29.8,28.5,00.0,38.7,31.7,26.6,0000.0,0006.71,0003.37,0002.13
2022-07-01 09:26:00,,0831.2,5.01,0.00,29.8,28.6,00.0,38.7,31.7,26.6,0000.0,0006.48,0003.33,0002.13
2022-07-01 09:27:00,,0831.2,5.00,0.00,29.8,28.6,00.0,38.7,31.7,26.6,0000.0,0006.45,0003.29,0002.14
2022-07-01 09:28:00,,0831.2,4.99,0.00,29.9,28.7,00.0,38.7,31.7,26.7,0000.0,0006.54,0003.31,0002.16
2022-07-01 09:29:00,,0831.2,5.01,0.00,29.9,28.7,00.0,38.7,31.7,26.7,0000.0,0006.55,0003.32,0002.16
2022-07-01 09:30:00,,0831.2,4.99,0.00,29.9,28.7,00.0,38.7,31.7,26.7,0000.0,0006.65,0003.34,0002.17
2022-07-01 09:31:00,,0831.2,5.00,0.00,29.9,28.8,00.0,38.7,31.7,26.6,0000.0,0006.47,0003.30,0002.16
2022-07-01 09:32:00,,0831.2,5.00,0.00,29.9,28.8,00.0,38.7,31.8,26.6,0000.0,0006.59,0003.33,0002.16
2022-07-01 09:33:00,,0831.2,5.00,0.00,29.9,28.8,00.0,38.7,31.8,26.6,0000.0,0006.71,0003.31,0002.15
2022-07-01 09:34:00,,0831.2,5.01,0.00,29.9,28.8,00.0,38.7,31.8,26.7,0000.0,0006.91,0003.29,0002.14
2022-07-01 09:35:00,,0831.2,5.00,0.00,30.0,28.9,00.0,38.7,31.9,26.8,0000.0,0006.61,0003.24,0002.15
2022-07-01 09:36:00,,0831.1,5.00,0.00,30.0,28.9,00.0,38.8,31.9,26.8,0000.0,0006.81,0003.25,0002.17
2022-07-01 09:37:00,,0831.1,5.00,0.00,30.0,28.9,00.0,38.8,31.9,26.6,0000.0,0007.00,0003.28,0002.18
2022-07-01 09:38:00,,0831.2,5.00,0.00,30.0,28.9,00.0,38.8,31.9,26.5,0000.0,0006.81,0003.28,0002.17
2022-07-01 09:39:00,,0831.1,5.00,0.00,30.0,29.0,00.0,38.8,31.9,26.5,0000.0,0006.95,0003.28,0002.17
2022-07-01 09:40:00,,0831.2,5.01,0.00,30.0,29.0,00.0,38.8,31.9,26.5,0000.0,0006.94,0003.28,0002.17
2022-07-01 09:41:00,,0831.1,5.00,0.00,30.1,29.0,00.0,38.8,32.0,26.4,0000.0,0007.29,0003.30,0002.18
2022-07-01 09:42:00,,0831.2,5.00,0.00,30.1,29.0,00.0,38.8,32.0,26.4,0000.0,0007.84,0003.32,0002.17
2022-07-01 09:43:00,,0831.1,4.99,0.00,30.1,29.0,00.0,38.8,32.0,26.4,0000.0,0007.75,0003.30,0002.17
2022-07-01 09:44:00,,0831.2,5.00,0.00,30.1,29.0,00.0,38.8,32.0,26.4,0000.0,0007.67,0003.30,0002.18
2022-07-01 09:45:00,,0831.2,4.99,0.00,30.1,29.0,00.0,38.9,32.0,26.3,0000.0,0007.94,0003.33,0002.19
2022-07-01 09:46:00,,0831.2,5.00,0.00,30.1,29.1,00.0,38.9,32.0,26.2,0000.0,0008.00,0003.35,0002.20
2022-07-01 09:47:00,,0831.2,5.00,0.00,30.1,29.1,00.0,38.9,32.0,26.2,0000.0,0007.83,0003.33,0002.20
2022-07-01 09:48:00,,0831.2,5.00,0.00,30.1,29.1,00.0,38.9,32.0,26.2,0000.0,0007.73,0003.31,0002.20
2022-07-01 09:49:00,,0831.1,5.00,0.00,30.1,29.1,00.0,38.9,32.0,26.2,0000.0,0007.81,0003.33,0002.22
2022-07-01 09:50:00,,0831.1,5.00,0.00,30.1,29.1,00.0,38.9,32.0,26.2,0000.0,0008.11,0003.32,0002.22
2022-07-01 09:51:00,,0831.0,5.00,0.00,30.1,29.1,00.0,38.9,32.0,26.1,0000.0,0008.37,0003.34,0002.23
2022-07-01 09:52:00,,0831.0,5.00,0.00,30.2,29.1,00.0,38.9,32.0,26.1,0000.0,0008.02,0003.31,0002.22
2022-07-01 09:53:00,,0831.0,5.00,0.00,30.2,29.1,00.0,38.9,32.1,26.1,0000.0,0007.77,0003.32,0002.23
2022-07-01 09:54:00,,0831.0,4.99,0.00,30.2,29.2,00.0,38.9,32.1,26.1,0000.0,0007.85,0003.34,0002.24
2022-07-01 09:55:00,,0831.0,5.01,0.00,30.2,29.2,00.0,38.9,32.1,26.0,0000.0,0007.70,0003.33,0002.26
2022-07-01 09:56:00,,0831.0,5.00,0.00,30.2,29.2,00.0,39.0,32.1,26.0,0000.0,0007.42,0003.31,0002.25
2022-07-01 09:57:00,,0830.9,5.00,0.00,30.2,29.2,00.0,39.0,32.1,26.0,0000.0,0007.34,0003.29,0002.25
2022-07-01 09:58:00,,0830.9,4.99,0.00,30.2,29.2,00.0,39.0,32.1,26.0,0000.0,0007.54,0003.31,0002.24
2022-07-01 09:59:00,,0830.9,4.99,0.00,30.2,29.2,00.0,39.0,32.1,26.0,0000.0,0007.61,0003.31,0002.24
